Temperature
19 21 22 22 23 23 24 24 25 26 26 26 26 27 28 28 27 27 27 28 27 26 24 22 23 23 22 21 20 20 20 19 18 18 18 18 18 18 17 17 17 17 16 16
21 21 21 21 22 22 22 23 24 25 26 26 26 26 28 28 28 28 28 28 27 25 23 22 22 23 22 21 21 20 20 19 18 17 18 18 18 18 17 17 17 17 16 16
22 22 22 22 21 21 22 22 23 24 25 26 25 26 27 28 28 27 26 26 27 25 24 23 22 21 22 21 21 20 19 18 17 17 17 17 17 17 17 17 17 17 17 17
22 23 22 22 22 21 21 21 21 22 23 24 25 24 27 28 28 28 27 26 25 23 23 22 21 21 21 20 20 19 18 17 17 17 17 17 17 17 17 17 17 16 16 16
23 23 22 22 23 22 21 19 19 19 20 22 24 24 26 27 27 27 27 26 24 23 22 22 21 21 20 20 19 19 18 17 17 17 17 17 17 17 17 17 16 16 16 16
23 23 23 23 24 23 22 20 19 18 20 22 24 24 25 27 26 26 26 25 23 22 22 22 21 21 20 20 20 19 18 18 18 17 17 17 17 17 16 16 16 16 16 16
23 24 23 23 23 23 22 20 20 20 20 22 24 23 25 26 26 25 25 25 23 22 22 22 21 21 20 20 19 19 18 18 17 17 17 17 16 16 16 15 15 15 15 15
22 23 24 23 23 23 23 22 21 21 22 23 23 23 26 25 25 24 24 23 23 22 22 22 22 21 20 19 19 18 18 17 17 17 17 16 16 16 15 15 15 14 15 15
22 23 24 23 23 24 23 23 24 23 23 22 23 24 26 25 25 25 24 23 23 23 23 22 21 21 20 19 19 18 18 18 17 17 16 16 16 16 15 15 14 14 14 14
21 21 23 22 23 23 23 24 23 23 22 22 23 23 24 25 25 25 25 24 24 23 23 22 21 20 20 19 19 19 18 18 17 17 16 16 16 16 15 15 15 15 14 14
20 20 21 22 22 22 22 22 23 23 22 22 22 23 25 24 24 24 24 24 23 23 23 22 22 21 20 20 20 19 19 18 18 17 17 16 16 16 15 15 15 15 15 14
20 19 20 21 21 20 20 21 21 20 20 20 20 22 25 24 24 24 24 23 23 22 22 22 21 21 21 21 20 20 19 18 18 18 17 16 16 16 16 15 15 15 15 14
19 18 18 19 19 20 19 19 19 19 19 19 19 21 24 24 24 23 23 23 23 22 22 22 21 21 21 21 21 20 20 19 18 18 18 17 16 16 16 15 15 15 15 15
18 17 17 16 17 18 18 18 19 18 18 19 20 21 23 23 23 23 23 22 22 22 22 22 21 21 21 20 20 20 20 19 18 18 18 17 16 16 16 16 15 15 15 14
18 17 17 17 18 18 19 19 19 19 19 19 20 20 21 21 21 21 21 21 21 21 21 21 21 21 20 20 20 20 19 19 18 18 17 17 16 16 16 15 15 15 14 14
18 17 18 18 18 18 18 19 19 19 19 18 19 19 20 18 18 19 19 20 21 21 21 21 20 20 20 19 19 19 18 18 18 17 17 17 16 16 16 16 15 15 15 15
17 17 17 17 18 18 18 17 18 18 18 17 17 17 17 18 19 19 19 20 20 20 20 19 19 19 19 19 18 18 18 18 18 17 17 16 16 16 16 16 16 16 16 15
16 17 17 17 17 16 16 17 17 17 17 17 17 17 17 17 19 18 17 18 19 18 18 17 17 17 17 17 18 18 18 18 17 17 16 15 15 16 16 16 16 16 16 15
15 15 15 16 15 17 16 15 14 16 16 16 16 16 16 17 21 20 16 15 15 16 16 16 16 16 17 17 17 18 17 17 16 16 15 15 15 15 16 16 16 16 16 16
15 15 14 14 13 13 11 10 12 16 16 15 15 16 15 16 19 19 15 14 14 15 15 15 16 16 17 17 17 17 16 15 15 15 14 14 15 15 15 15 15 15 15 15
15 15 13 12 12 11 8 8 13 14 12 14 14 15 15 15 15 15 15 14 14 15 15 15 15 16 16 15 15 14 14 13 13 13 13 13 13 14 14 14 14 14 14 13
13 13 12 10 10 8 7 8 9 9 10 13 14 14 14 14 15 15 15 14 14 15 15 14 14 15 14 14 14 13 12 12 12 12 12 12 12 13 13 13 13 12 12 12
13 12 12 11 10 9 8 7 8 8 9 11 13 13 14 14 14 15 15 14 14 14 14 14 14 14 13 13 13 13 12 12 12 11 11 11 11 12 12 12 11 11 11 11
13 13 12 12 12 11 10 9 8 8 9 11 12 13 13 14 14 15 15 15 15 15 14 14 13 13 13 13 13 13 12 12 12 11 11 11 11 10 10 10 10 10 10 10
11 11 11 11 12 11 10 10 9 8 9 10 12 13 13 14 14 14 15 15 15 15 15 14 14 13 13 13 13 13 13 12 12 11 11 11 11 10 11 11 10 10 11 11
11 10 9 10 10 9 9 9 8 8 9 10 11 12 13 14 14 14 15 15 15 15 15 14 14 13 13 13 13 13 13 12 12 12 11 11 11 11 11 11 11 11 11 11
Wind_Speed
1 3 5 3 4 6 7 9 11 9 7 9 12 13 13 11 8 11 12 13 13 11 7 6 6 5 5 6 8 8 9 9 8 7 7 7 7 8 9 9 12 14 14 14
3 4 4 4 5 7 9 11 13 10 6 9 13 15 14 14 13 12 12 12 13 10 10 9 7 5 5 5 6 8 9 10 9 7 7 6 6 6 8 8 10 13 14 14
6 2 1 5 7 8 10 10 9 9 12 11 12 16 14 13 12 11 11 10 11 12 13 11 8 6 5 5 6 7 9 10 10 9 7 6 5 5 6 8 9 11 13 13
6 5 8 12 12 9 10 4 7 10 11 10 7 12 12 12 13 13 12 10 10 11 12 11 9 7 6 6 7 7 8 9 10 10 9 10 7 7 8 7 8 10 13 14
4 3 5 9 9 9 7 1 4 8 10 13 13 12 11 8 11 11 8 8 9 11 13 12 9 7 7 7 7 7 8 9 9 10 9 9 8 6 5 6 7 9 10 12
7 6 7 7 6 6 5 3 1 4 8 12 12 10 9 6 5 6 6 4 7 11 13 11 9 8 7 7 6 6 7 8 8 9 9 9 8 7 6 7 6 6 6 8
5 4 3 4 5 7 7 4 2 4 7 7 3 6 7 5 6 8 10 4 6 11 12 11 10 9 8 7 7 7 7 7 8 8 8 8 7 7 7 7 7 7 6 6
7 4 1 2 5 6 10 11 8 5 5 3 5 7 3 3 5 5 5 1 6 10 11 10 9 8 8 9 9 8 8 7 7 7 7 7 7 5 5 6 6 6 6 6
6 5 2 5 7 9 7 9 8 10 10 8 8 6 6 1 1 2 4 3 4 7 9 9 8 8 8 10 10 10 9 8 8 7 6 6 5 5 5 6 6 5 6 5
6 10 7 5 5 3 6 5 6 8 8 11 10 10 8 5 1 2 3 3 1 3 5 7 8 8 9 10 11 11 10 10 9 7 6 4 5 5 4 5 6 6 6 6
6 8 7 5 4 6 5 8 10 9 7 8 7 3 0 1 4 4 5 5 5 5 4 4 6 9 10 10 11 12 12 11 10 9 7 6 5 5 5 5 6 6 6 7
4 6 9 7 3 3 5 7 9 10 11 7 6 5 1 2 0 2 4 6 7 7 8 7 7 8 10 12 13 13 13 13 11 10 9 7 6 5 5 5 6 7 7 7
7 6 7 4 3 2 3 6 8 8 6 7 7 6 1 4 5 6 7 9 11 11 11 9 9 9 10 11 12 13 13 13 12 11 10 9 8 7 6 6 6 7 8 8
6 6 6 6 8 7 10 11 13 11 7 8 10 12 12 14 16 16 16 16 15 14 13 11 10 9 9 10 12 13 13 12 12 11 10 9 9 8 8 7 7 8 8 8
7 8 10 11 12 12 14 14 14 14 12 11 13 16 17 17 19 20 20 18 16 15 13 12 10 8 7 9 11 11 11 10 10 10 10 9 9 8 8 8 9 9 9 9
7 9 13 15 12 13 16 13 10 8 6 7 12 13 15 22 20 18 17 15 13 13 12 10 9 6 4 7 9 9 8 8 8 8 9 8 8 9 10 10 10 10 11 11
7 11 13 14 13 14 4 8 8 8 12 10 11 16 22 22 18 11 9 10 10 10 9 7 5 3 2 4 7 7 7 6 6 6 7 8 9 10 11 11 11 11 12 12
9 12 8 9 8 4 5 8 9 8 13 15 15 18 21 21 10 11 12 10 8 7 5 6 7 8 8 9 9 8 7 5 3 4 5 7 8 9 10 10 11 12 11 11
6 6 5 5 5 6 6 12 18 5 9 20 21 23 25 25 3 14 18 13 10 8 8 9 10 11 12 11 11 10 9 7 5 2 1 2 4 6 8 10 11 10 10 11
4 5 5 5 5 1 10 26 27 8 3 22 23 24 25 23 14 14 18 12 10 10 9 9 10 12 12 12 11 11 10 9 7 6 6 5 5 3 3 5 7 7 9 10
12 8 6 7 4 3 15 27 17 3 10 20 21 21 22 17 13 16 13 7 7 8 7 7 9 10 10 9 10 10 10 9 7 7 7 8 8 6 5 2 1 3 5 7
9 9 8 7 6 5 15 17 11 10 16 20 21 20 21 19 18 14 8 3 4 5 5 6 7 9 8 8 9 10 9 7 7 7 7 8 8 7 6 5 4 4 5 6
7 8 6 5 4 5 6 7 11 14 20 22 22 22 21 20 18 14 6 1 2 3 4 5 6 7 7 7 7 8 7 6 6 6 7 7 7 7 6 5 6 5 5 4
7 8 6 6 4 9 8 6 11 15 19 23 22 21 20 19 18 14 6 3 2 2 3 3 3 4 5 5 4 5 4 4 5 6 6 6 6 7 6 5 4 5 4 3
5 7 8 9 11 12 9 15 15 18 21 22 21 20 18 18 18 14 7 4 4 4 3 3 3 2 2 2 2 3 2 3 4 4 5 5 6 6 5 5 5 4 4 3
3 6 7 8 11 12 17 16 16 19 21 22 21 20 18 16 16 14 7 4 5 5 5 4 4 4 3 2 3 3 2 2 2 3 4 4 4 4 4 4 4 8 7 7
Wind_Direction
74 262 251 279 281 280 291 280 274 275 289 290 277 275 271 265 252 253 250 240 227 221 198 187 182 188 202 208 207 196 190 176 170 177 187 188 199 211 219 215 207 205 207 203
194 240 258 273 278 265 264 266 267 273 276 289 283 278 272 262 260 260 263 253 225 208 194 181 171 161 173 179 183 185 185 179 178 183 192 200 199 211 217 219 212 207 204 199
243 238 189 228 236 249 258 265 279 293 305 281 285 276 262 255 253 252 253 252 224 202 198 184 175 163 159 166 172 181 185 182 182 180 183 186 187 198 203 214 211 207 200 191
267 266 250 250 251 252 262 298 319 315 305 285 280 286 276 274 270 258 252 241 222 200 196 183 176 166 160 160 167 175 180 184 185 184 191 197 208 215 215 211 207 208 202 195
281 273 257 250 252 237 243 64 348 317 299 284 268 271 276 271 270 270 271 252 225 200 191 181 171 156 146 146 156 166 171 176 181 195 206 220 231 231 224 216 212 209 205 203
271 258 265 271 270 225 172 145 220 255 263 262 259 263 279 274 288 308 317 284 210 189 182 173 158 155 151 150 154 163 170 172 180 195 207 219 222 217 214 211 208 208 211 215
288 240 224 256 249 198 198 208 252 232 224 246 226 251 269 314 326 319 319 312 185 176 174 171 172 174 171 169 170 171 170 168 177 190 202 211 214 218 222 221 214 209 209 216
297 283 111 311 271 236 220 225 231 249 250 232 198 239 250 1 320 333 351 87 165 173 180 184 188 188 185 185 186 183 177 171 175 195 202 204 204 217 229 223 217 208 209 210
295 287 316 317 297 265 237 228 243 260 267 270 252 246 266 258 340 22 45 95 169 190 199 205 206 205 199 196 194 191 185 180 183 196 198 204 209 214 218 219 212 205 207 205
296 290 292 308 257 228 274 267 230 243 260 260 255 247 247 234 37 39 50 51 45 239 236 229 220 220 215 207 199 193 191 187 187 192 194 202 210 204 211 208 198 198 196 189
298 284 285 284 291 302 276 246 250 256 268 270 275 250 248 75 62 60 54 35 14 2 340 290 241 224 217 210 203 196 190 189 187 188 190 197 201 203 205 204 194 192 187 180
305 292 285 290 337 324 287 299 278 261 256 250 263 266 15 263 288 53 23 9 354 344 334 316 283 242 219 211 206 202 196 188 187 185 185 198 198 200 211 204 194 190 189 192
312 288 296 269 169 28 356 349 329 312 281 249 242 254 275 283 280 283 295 316 318 312 310 305 287 263 236 216 208 204 200 190 182 181 184 195 201 205 213 211 197 196 197 198
310 290 288 299 323 320 308 305 305 295 276 272 267 288 300 301 299 295 293 298 300 296 296 296 287 269 243 221 208 203 200 192 184 184 189 200 209 209 213 212 206 206 205 203
336 310 317 309 305 301 295 287 279 275 272 283 305 309 311 317 311 297 289 288 289 288 287 291 292 286 250 218 205 200 198 193 190 194 202 211 218 216 216 211 211 212 211 211
316 298 305 302 308 311 300 299 284 265 285 313 322 322 334 321 309 295 284 281 284 285 288 298 303 302 262 207 192 184 184 186 194 208 220 220 223 221 221 219 216 215 212 215
297 295 300 299 314 307 304 24 22 78 59 18 353 335 330 328 329 328 310 298 298 303 311 322 340 15 75 149 155 156 160 165 192 222 232 226 223 222 224 222 218 215 214 214
283 291 282 286 303 282 84 50 17 98 53 21 1 350 345 334 339 37 11 346 337 350 15 50 68 73 79 90 100 107 117 133 176 230 239 232 225 222 222 220 217 214 211 207
260 290 285 277 273 265 93 15 346 305 54 16 0 355 353 343 21 43 24 16 24 39 58 69 76 81 79 80 90 95 92 89 83 55 320 273 246 230 218 217 218 212 205 203
314 281 291 291 282 313 13 341 325 273 47 5 356 353 353 355 9 1 359 10 37 49 57 70 78 79 76 76 80 81 77 70 59 42 30 24 20 357 277 235 222 209 207 210
341 343 346 331 301 53 8 339 342 59 354 340 345 347 349 352 338 323 333 4 36 46 50 66 78 77 76 79 79 76 67 56 42 32 34 34 32 33 31 34 147 184 196 200
349 356 6 1 348 356 353 347 355 336 325 329 336 339 339 338 337 338 339 5 38 52 58 71 85 84 80 80 80 75 64 52 42 39 38 35 35 40 50 67 91 121 140 149
360 360 338 334 313 293 281 281 302 321 319 322 325 327 330 333 338 336 321 302 60 64 77 85 96 94 89 78 70 69 62 44 39 41 38 33 39 48 56 82 103 109 118 130
340 351 338 330 343 332 307 291 312 313 309 313 315 317 324 330 333 332 303 229 175 132 108 113 129 117 97 79 60 50 47 29 28 36 31 29 33 45 58 74 95 100 96 102
330 336 332 318 329 329 323 329 326 319 314 313 313 313 319 325 330 331 302 233 195 168 153 165 193 176 125 78 30 12 356 351 12 31 35 38 45 48 55 72 57 46 61 40
353 338 327 314 322 315 310 319 321 318 316 314 310 308 313 320 327 332 310 238 201 181 172 183 202 220 227 259 310 321 284 283 336 20 34 37 46 62 66 76 83 54 51 54
Height
1506 1506 1504 1502 1501 1501 1500 1498 1496 1491 1489 1490 1488 1485 1481 1480 1483 1483 1482 1483 1484 1487 1489 1490 1492 1493 1495 1497 1499 1500 1502 1503 1504 1507 1509 1512 1514 1516 1518 1520 1521 1523 1526 1529
1504 1505 1504 1504 1503 1502 1502 1501 1496 1490 1487 1489 1486 1482 1477 1477 1478 1478 1477 1478 1480 1484 1487 1488 1489 1491 1493 1494 1496 1497 1498 1499 1500 1503 1505 1508 1511 1513 1514 1515 1516 1518 1521 1524
1502 1500 1501 1502 1504 1505 1503 1502 1498 1496 1490 1485 1487 1483 1474 1470 1472 1474 1475 1476 1476 1480 1484 1486 1488 1490 1491 1492 1494 1496 1496 1497 1498 1500 1502 1505 1507 1509 1511 1511 1512 1514 1516 1518
1499 1497 1499 1500 1500 1502 1505 1502 1502 1501 1499 1492 1489 1491 1474 1468 1467 1468 1471 1473 1474 1477 1480 1484 1487 1489 1490 1491 1492 1494 1494 1496 1497 1499 1500 1502 1504 1506 1508 1508 1509 1511 1513 1514
1496 1496 1497 1497 1495 1497 1500 1503 1506 1507 1506 1499 1487 1489 1474 1465 1467 1464 1466 1469 1471 1474 1477 1482 1485 1488 1490 1491 1492 1493 1493 1494 1496 1498 1499 1500 1501 1503 1504 1505 1505 1507 1508 1510
1494 1494 1494 1492 1490 1491 1495 1501 1506 1509 1507 1503 1484 1486 1479 1464 1465 1464 1465 1467 1469 1471 1475 1480 1483 1485 1487 1489 1490 1492 1492 1493 1494 1495 1496 1497 1498 1499 1500 1501 1502 1503 1504 1505
1491 1489 1490 1491 1491 1492 1494 1503 1512 1511 1506 1495 1480 1485 1476 1462 1464 1465 1465 1465 1467 1470 1474 1478 1481 1484 1486 1488 1490 1491 1492 1492 1493 1494 1494 1495 1496 1497 1498 1498 1498 1499 1500 1500
1497 1492 1487 1487 1488 1487 1488 1492 1504 1506 1500 1488 1484 1482 1467 1464 1465 1465 1465 1465 1468 1471 1474 1478 1481 1483 1485 1487 1488 1489 1490 1491 1491 1492 1494 1494 1494 1494 1495 1495 1496 1496 1496 1497
1497 1494 1486 1487 1486 1484 1484 1485 1481 1487 1486 1492 1480 1471 1465 1461 1463 1464 1465 1467 1469 1472 1475 1477 1480 1482 1484 1485 1486 1487 1488 1489 1489 1491 1491 1492 1492 1492 1493 1493 1493 1493 1494 1494
1500 1499 1488 1487 1485 1484 1482 1478 1482 1484 1489 1489 1478 1475 1471 1462 1463 1464 1465 1467 1470 1472 1474 1476 1477 1479 1481 1483 1484 1485 1486 1487 1487 1488 1489 1489 1490 1491 1491 1491 1491 1492 1492 1493
1503 1502 1492 1486 1485 1485 1484 1483 1479 1477 1480 1488 1487 1479 1462 1464 1464 1465 1466 1468 1471 1472 1473 1474 1475 1476 1477 1479 1480 1481 1482 1484 1485 1485 1487 1488 1489 1489 1490 1490 1490 1491 1491 1492
1505 1504 1498 1490 1489 1490 1488 1485 1484 1492 1489 1487 1492 1483 1461 1464 1465 1466 1466 1468 1470 1471 1472 1472 1472 1472 1472 1474 1476 1477 1479 1481 1482 1482 1484 1486 1487 1487 1488 1489 1489 1490 1490 1491
1507 1508 1507 1496 1497 1493 1491 1490 1490 1491 1490 1488 1493 1482 1462 1464 1465 1467 1467 1467 1468 1469 1469 1469 1469 1468 1468 1469 1471 1473 1476 1477 1478 1479 1481 1483 1484 1485 1486 1488 1488 1489 1490 1491
1509 1507 1510 1512 1505 1499 1496 1494 1491 1493 1496 1488 1482 1474 1466 1466 1466 1465 1465 1465 1465 1465 1465 1465 1464 1463 1463 1463 1465 1469 1472 1474 1475 1477 1478 1480 1482 1483 1484 1485 1486 1487 1488 1489
1507 1506 1503 1501 1497 1494 1491 1489 1488 1487 1485 1486 1480 1477 1472 1470 1470 1466 1463 1462 1462 1461 1461 1460 1460 1458 1457 1458 1460 1464 1469 1471 1473 1475 1476 1478 1480 1480 1481 1482 1483 1484 1485 1487
1507 1505 1501 1497 1492 1491 1488 1482 1480 1482 1484 1485 1483 1479 1475 1475 1469 1463 1460 1459 1458 1458 1457 1457 1455 1454 1453 1454 1457 1462 1466 1469 1471 1473 1474 1475 1476 1477 1478 1479 1480 1481 1482 1483
1506 1504 1502 1497 1491 1489 1487 1489 1486 1486 1489 1491 1491 1488 1479 1470 1463 1459 1457 1457 1456 1455 1454 1453 1452 1451 1452 1454 1457 1461 1464 1466 1468 1470 1471 1471 1472 1472 1474 1475 1476 1477 1478 1479
1509 1503 1500 1497 1496 1497 1495 1490 1490 1489 1492 1493 1491 1486 1479 1472 1462 1461 1459 1457 1455 1454 1452 1452 1452 1452 1453 1455 1457 1459 1462 1464 1465 1466 1467 1467 1467 1468 1469 1470 1471 1473 1474 1476
1511 1507 1502 1499 1498 1491 1492 1497 1501 1495 1494 1494 1490 1485 1478 1469 1457 1458 1460 1459 1457 1456 1455 1454 1454 1455 1456 1457 1458 1460 1461 1462 1463 1463 1463 1463 1463 1464 1464 1465 1466 1468 1469 1471
1510 1508 1507 1504 1508 1506 1513 1509 1499 1492 1493 1497 1493 1488 1482 1474 1464 1465 1465 1464 1461 1459 1459 1459 1459 1459 1458 1459 1460 1461 1462 1462 1462 1461 1461 1460 1460 1459 1459 1459 1461 1462 1464 1466
1511 1508 1512 1514 1512 1513 1525 1517 1500 1503 1513 1505 1499 1494 1489 1484 1482 1476 1470 1468 1465 1464 1463 1463 1462 1461 1461 1462 1463 1463 1462 1462 1461 1460 1459 1458 1457 1456 1455 1455 1456 1457 1459 1461
1522 1521 1522 1525 1526 1529 1528 1522 1521 1520 1515 1508 1502 1497 1492 1486 1480 1475 1472 1470 1468 1467 1466 1466 1466 1465 1465 1466 1466 1465 1463 1462 1461 1460 1459 1458 1457 1455 1454 1454 1454 1455 1457 1459
1527 1530 1529 1529 1532 1531 1528 1526 1524 1520 1515 1509 1503 1497 1492 1485 1480 1476 1473 1472 1470 1469 1469 1469 1469 1469 1468 1468 1468 1467 1466 1464 1463 1461 1460 1459 1457 1455 1454 1454 1455 1457 1458 1460
1530 1530 1528 1526 1524 1525 1524 1522 1520 1516 1512 1507 1502 1496 1491 1485 1480 1475 1473 1472 1471 1470 1470 1470 1472 1472 1472 1471 1469 1469 1467 1466 1465 1464 1462 1461 1459 1458 1456 1456 1457 1459 1461 1462
1535 1532 1530 1526 1524 1522 1520 1520 1515 1510 1507 1502 1497 1493 1489 1484 1479 1474 1472 1471 1470 1470 1470 1471 1473 1474 1474 1472 1471 1470 1468 1467 1467 1466 1464 1463 1462 1460 1458 1458 1459 1460 1462 1463
1535 1535 1533 1529 1526 1524 1519 1515 1512 1507 1503 1498 1492 1487 1485 1482 1478 1473 1471 1470 1470 1470 1470 1471 1472 1474 1474 1473 1472 1470 1469 1468 1468 1467 1466 1465 1464 1463 1462 1462 1462 1462 1463 1463